www.pogodaiklimat.ru
Время
и дата
15:51 28.11
16:51 28.11
17:51 28.11
18:51 28.11
19:51 28.11
20:34 28.11
20:51 28.11
21:51 28.11
22:51 28.11
23:26 28.11
23:51 28.11
00:51 29.11
01:16 29.11
01:51 29.11
02:51 29.11
03:51 29.11
04:26 29.11
04:51 29.11
05:51 29.11
06:51 29.11
07:51 29.11
08:51 29.11
09:51 29.11
10:51 29.11
11:51 29.11
12:51 29.11
13:51 29.11
14:51 29.11
15:51 29.11
16:51 29.11
17:51 29.11
18:51 29.11
19:51 29.11
20:51 29.11
21:51 29.11
22:51 29.11
23:51 29.11
00:51 30.11
01:51 30.11
02:51 30.11
03:51 30.11
04:37 30.11
04:51 30.11
05:27 30.11
05:51 30.11
06:51 30.11
07:21 30.11
07:51 30.11
Ветер
(напр.,м/с)
Видим. Явления Облачность Т
(С)
Тd
(С)
f
(%)
Тe
(С)
Тes
(С)
Комфортность P
(гПа)
Po
(гПа)
Тmin
(С)
Tmax
(С)
R
(мм)
R24
(мм)
S
(см)
З 3 16 км 10/10 720 м +5.6 +1.7 76 +2 +2 1016.2 971.4
З 2 16 км 10/10 1020 м +5.6 +1.1 73 +3 +3 1017.0 972.0
ЮЗ 2 16 км 10/10 1110 м +5.6 +1.1 73 +3 +3 1017.4 972.3
З 2 16 км 10/10 570 м +5.0 +1.1 76 +3 +3 1018.5 973.3 +5.0 +6.1
ЮЗ 2 16 км 10/10 1140 м +4.4 +1.7 83 +2 +2 1019.0 974.0
ЮЗ 3 16 км 10/10 690 м +4.4 +1.7 83 +1 +1 974.3
ЮЗ 4 16 км 10/10 660 м +4.4 +2.2 86 0 0 1019.6 974.6
ЮЗ 2 16 км 10/10 690 м +3.9 +2.2 89 +1 +1 1019.3 974.3
Ю 2 16 км 10/10 840 м +3.9 +2.2 89 +1 +1 1020.0 974.9
ЮВ 2 16 км 10/10 960 м +3.9 +2.2 89 +1 +1 974.9
ЮВ 2 16 км 10/10 600 м +3.9 +2.2 89 +1 +1 1020.4 975.3
штиль 0 16 км 10/10 570 м +3.9 +2.2 89 +3 +3 1020.5 975.3 +3.9 +5.0
штиль 0 16 км 10/10 690 м +3.9 +2.2 89 +3 +3 975.3
штиль 0 16 км 10/10 600 м +3.9 +2.8 93 +3 +3 1020.2 974.9
ЮВ 2 14 км 10/10 570 м +4.4 +2.8 89 +2 +2 1020.4 975.3
Ю 2 13 км 10/10 270 м +4.4 +2.8 89 +2 +2 1020.7 975.6
штиль 0 14 км 10/10 270 м +4.4 +2.8 89 +3 +3 975.6
штиль 0 13 км 10/10 270 м +4.4 +2.8 89 +3 +3 1021.2 975.9
Ю 2 13 км 10/10 900 м +4.4 +2.8 89 +2 +2 1021.3 975.9
штиль 0 11 км 10/10 1050 м +5.0 +2.8 86 +4 +4 1021.7 976.2 +3.9 +5.0 0.3
ЮВ 2 10 км дымка 10/10 1110 м +5.0 +2.8 86 +2 +2 1022.0 976.6
ЮВ 2 11 км 10/10 1050 м +5.6 +3.3 85 +3 +3 1022.3 976.9
ЮВ 3 13 км 10/10 1020 м +6.1 +3.3 82 +3 +3 1022.3 976.9
ЮВ 4 13 км 10/10 1020 м +7.2 +3.9 80 +4 +4 1021.8 976.6
ЮВ 4 16 км 10/10 1050 м +8.3 +3.3 71 +5 +5 1021.1 975.9
ЮВ 5 16 км 10/10 1080 м +8.9 +3.3 68 +6 +6 1019.7 974.6 +4.4 +8.9
ЮВ 4 16 км 10/8 1050 m
[Ac]
+10.0 +3.3 63 +8 +8 1018.7 974.0
Ю 5 16 км 8/2 1140 m
[Ac Ci]
+11.1 +3.3 59 +9 +10 1017.5 972.7
ЮВ 4 16 км 8/0 4500 m
[Ac Ci]
+11.1 +3.3 59 +9 +10 1017.2 972.3
ЮВ 3 16 км 8/0 4500 m
[Ac Ci]
+10.6 +3.3 61 +9 +9 1017.1 972.3
ЮВ 4 16 км 10/0 4500 m
[Ac Ci]
+8.9 +3.3 68 +6 +6 1016.5 971.7
ЮВ 4 16 км 10/0 4200 m
[Ac Ci]
+9.4 +3.3 66 +7 +7 1016.1 971.4 +8.3 +11.7
ЮВ 5 16 км 10/0 6000 m
[Ac]
+10.0 +3.3 63 +7 +7 1015.3 970.7
ЮВ 5 16 км 8/0 5100 m
[Ac]
+9.4 +2.8 63 +6 +6 1014.4 969.8
ЮВ 5 16 км 8/0 3600 m
[Ac]
+10.0 +2.2 58 +7 +7 1013.5 969.1
ЮВ 5 16 км 8/0 3600 m
[Ac]
+9.4 +2.2 61 +6 +6 1011.9 967.5
ЮВ 5 16 км 8/0 3600 m
[Ac]
+9.4 +1.7 59 +6 +6 1010.7 966.5
ЮВ 4 16 км 10/0 2100 m
[Ac]
+9.4 +1.7 59 +7 +7 1009.8 965.5 +9.4 +10.0
ЮВ 4 16 км 10/0 2100 m
[Ac]
+10.0 +1.7 56 +8 +8 1009.5 965.2
Ю 2 16 км слабый дождь 10/8 1110 m
[Ac Ns]
+9.4 +2.8 63 +8 +8 1009.4 965.2
ЮВ 3 13 км слабый дождь 10/10 870 m
[Ns]
+8.3 +5.0 80 +6 +6 1008.4 964.2 1.0
ЮВ 5 11 км слабый дождь 10/10 780 m
[Ns]
+8.9 +6.1 83 +5 +5 962.9
ЮВ 5 14 км слабый дождь 10/5 780 m
[Ac Ns]
+8.9 +6.7 86 +5 +5 1006.6 962.6
Ю 4 16 км слабый дождь 10/8 630 m
[Ac Ns]
+10.0 +8.3 89 +7 +7 962.0
Ю 6 10 км слабый дождь, дымка 10/10 450 m
[Ns]
+10.0 +8.3 89 +6 +6 1005.2 961.3
Ю 5 8 км слабый дождь, дымка 10/10 330 m
[Ns]
+10.6 +8.9 89 +8 +8 1004.6 960.7 +8.3 +10.6 4.6 4.6
Ю 5 16 км слабый дождь 10/10 360 m
[Ns]
+10.6 +9.4 92 +8 +8 960.4
Ю 5 16 км слабый дождь 10/10 450 m
[Ns]
+11.1 +9.4 89 +8 +8 1003.4 959.7
Местоположение метеостанции Pittsburgh International Airport: широта 40.4847 долгота -80.2144 высота над уровнем моря 367 м.
В архиве по умолчанию представлена погода в Питтсбурге за последние 1-2 суток. Обновление информации о фактической погоде в базе происходит ежечасно! Архивные данные за месяц целиком и за предыдущие месяцы Вы можете получить, выбрав интересующий диапазон дат из раскрывающегося списка и нажав кнопку "Ввод!".
Внимание! Архив погоды МЕТАР в базе сайта по станциям, не включенным в климатический монитор, хранится не более 60 дней. Нет смысла пытаться выбрать более раннюю дату.
*Определитесь, кто Вы:
Внимание! Время в таблицах - местное (без учета летнего времени). Для получения всемирного времени необходимо вычесть поправку, которая равна -5 ч.
Смотрите также архив погоды в соседних городах и на ближайших метеорологических станциях:
Партнеры нашего сайта:      
Пояснения к столбцам:
  • Ветер - указаны скорость ветра в м/с - средняя за 10 мин, порывы в срок и между сроками (в фигурных скобках) и направление, откуда дует ветер: С - северный,
  • СВ - северо-восточный, В - восточный, ЮВ - юго-восточный, Ю - южный, ЮЗ - юго-западный, З - западный, СЗ - северо-западный.
  • Видимость - горизонтальная дальность видимости в метрах или километрах. При видимости от 1 до 10 км при отсутствии осадков обычно наблюдается дымка, при ухудшении видимости до 1 км и менее - туман. В сухую погоду видимость может ухудшаться дымом, пылью или мглою.
  • Явления - указаны атмосферные явления, наблюдавшиеся в срок или в последний час перед сроком; фигурными скобками обозначены явления, наблюдавшиеся между сроками (за 1-3 часа до срока); квадратными скобками обозначены град или гололедные отложения с указанием их диаметра в мм.
  • Облачность - указаны через наклонную черту общая и нижняя облачность в баллах и высота нижней границы облаков в метрах; квадратными скобками обозначены формы облаков: Ci - перистые, Cs - перисто-слоистые, Cc - перисто-кучевые, Ac - высококучевые, As - высокослоистые, Sc - слоисто-кучевые, Ns - слоисто-дождевые, Cu - кучевые, Cb - кучево-дождевые. Подробнее классификацию облаков см. в Атласе облаков (PDF).
  • T - Температура воздуха - температура, измеренная на высоте 2 м над землей.
  • Td - Температура точки росы - температура, при понижении до которой содержащийся в воздухе водяной пар достигнет насыщения.
  • f - Относительная влажность воздуха - влажноcть воздуха, измеренная на высоте 2 м над землей.
  • Te - Эффективная температура - температура, которую ощущает одетый по сезону человек в тени. Характеристика душности погоды. При расчете учитывается влияние влажности воздуха и скорости ветра на теплоощущения человека.
  • Tes - Эффективная температура на солнце - температура, которую ощущает человек, с поправкой на солнечный нагрев. Характеристика знойности погоды. Зависит от высоты солнца над горизонтом, облачности и скорости ветра. Ночью, в пасмурную погоду, а также при ветре 12 м/с и более поправка равна нулю.
  • P - Атмосферное давление - приведенное к уровню моря атмосферное давление.
  • Po - Атмосферное давление - измеренное на уровне метеостанции атмосферное давление.
  • Tmin - Минимальная температура - минимум температуры воздуха на высоте 2 м над землей.
  • Tmax - Максимальная температура - максимум температуры воздуха на высоте 2 м над землей.
  • R - Количество осадков - Количество выпавших осадков за период времени, мм. При наведении курсора мыши на число - период времени, за который выпало указанное количество осадков.
  • R24 - Количество осадков - Количество выпавших осадков за 24 часа, мм.
  • S - Снежный покров - Высота снежного покрова, см. При наведении курсора мыши на число - состояние снежного покрова и степень покрытия местности в баллах.